DW8482 Tortoreto Alto IT current weather conditions

sailwx.info

Wind from 017 at 1 knots gusting 11

Air temperature 13.3° C
Dewpoint 9.2° C

Last reported at 2014-Oct-26 07:47 UTC.
Time now 2014-Oct-26 08:32 UTC

Location: N 42°48' E 013°54'.
View on Google Maps.

See reports from other nearby stations

  
Tides and Currents Weather Stations Pressure Air Temp Water Temp Dewpoint Dewpoint Depression Visibility Wind Speed Wind Dir Waves Ship Positions
date/time (UTC)wind fromknots sea level pressurealtimeterstation pressurevisibilityair tempwater tempwave heightnotes
2014-Oct-26 07:47 017 1 gusting 11 13.3
2014-Oct-26 07:42 257 3 gusting 10 13.3
2014-Oct-26 07:37 311 7 gusting 11 12.8
2014-Oct-26 07:32 259 3 gusting 6 12.8
2014-Oct-26 07:27 257 4 gusting 8 12.8
2014-Oct-26 07:22 250 12.2
2014-Oct-26 07:17 150 12.2
2014-Oct-26 07:12 256 1 gusting 9 12.2
2014-Oct-26 07:07 259 2 gusting 6 12.2
2014-Oct-26 07:02 285 6 gusting 13 12.2
2014-Oct-26 06:57 277 2 gusting 13 11.7
2014-Oct-26 06:52 244 5 gusting 10 11.7
2014-Oct-26 06:47 310 6 gusting 10 11.7
2014-Oct-26 06:42 280 11.7
2014-Oct-26 06:37 314 2 gusting 9 11.7
2014-Oct-26 06:32 302 3 gusting 9 11.1
2014-Oct-26 06:27 316 0 gusting 10 11.1
2014-Oct-26 06:22 275 6 gusting 8 11.1
2014-Oct-26 06:17 268 3 gusting 10 11.1
2014-Oct-26 06:12 242 3 gusting 10 11.1
2014-Oct-26 06:07 289 11.1
2014-Oct-26 06:02 288 4 gusting 6 11.1
2014-Oct-26 05:57 297 4 gusting 9 11.1
2014-Oct-26 05:52 252 3 gusting 6 11.1
2014-Oct-26 05:47 213 11.1
2014-Oct-26 05:42 312 4 gusting 7 11.1
2014-Oct-26 05:37 254 1 gusting 6 10.6
2014-Oct-26 05:32 284 2 gusting 9 10.6
2014-Oct-26 05:27 280 6 gusting 7 11.1
2014-Oct-26 05:22 286 3 gusting 8 11.1
2014-Oct-26 05:17 290 11.1
2014-Oct-26 05:12 254 11.1
2014-Oct-26 05:07 275 3 gusting 8 11.1
2014-Oct-26 05:02 225 2 gusting 7 11.1
2014-Oct-26 04:57 250 11.1
2014-Oct-26 04:52 245 11.1
2014-Oct-26 04:47 277 4 gusting 6 11.1
2014-Oct-26 04:42 280 1 gusting 6 11.1
2014-Oct-26 04:37 319 10.6
2014-Oct-26 04:32 300 10.6
2014-Oct-26 04:27 246 4 gusting 7 10.6
2014-Oct-26 04:22 257 1 gusting 7 10.6
2014-Oct-26 04:17 261 4 gusting 7 10.6
2014-Oct-26 04:12 260 1 gusting 7 10.6
2014-Oct-26 04:07 270 7 gusting 7 10.6
2014-Oct-26 04:02 265 0 gusting 4 10.6
2014-Oct-26 03:57 238 2 gusting 5 10.6
2014-Oct-26 03:52 267 4 gusting 6 10.6
2014-Oct-26 03:47 280 10.6
2014-Oct-26 03:42 246 10.6
2014-Oct-26 03:37 259 10.6
2014-Oct-26 03:32 240 10.6
2014-Oct-26 03:27 339 2 gusting 7 10.6
2014-Oct-26 03:22 315 2 gusting 6 10.6
2014-Oct-26 03:17 265 6 gusting 6 10.6
2014-Oct-26 03:12 257 3 gusting 9 10.6
2014-Oct-26 03:07 257 1 gusting 6 10.6
2014-Oct-26 03:02 256 3 gusting 6 10.6
2014-Oct-26 02:57 290 1 gusting 6 10.6
2014-Oct-26 02:52 237 1 gusting 6 10.6
2014-Oct-26 02:47 244 3 gusting 6 10.6
2014-Oct-26 02:42 245 2 gusting 6 10.6
2014-Oct-26 02:37 229 1 gusting 6 10.6
2014-Oct-26 02:32 270 1 gusting 5 11.1
2014-Oct-26 02:27 267 4 gusting 8 11.1
2014-Oct-26 02:22 261 11.1
2014-Oct-26 02:17 275 2 gusting 6 11.1
2014-Oct-26 02:12 268 6 gusting 6 11.1
2014-Oct-26 02:07 298 11.1
2014-Oct-26 01:02 263 4 gusting 9 11.1
2014-Oct-26 00:57 306 11.1
2014-Oct-26 00:52 279 6 gusting 9 11.1
2014-Oct-26 00:47 304 2 gusting 9 11.1
2014-Oct-26 00:42 281 0 gusting 6 11.1
2014-Oct-26 00:37 282 8 gusting 8 11.1
2014-Oct-26 00:32 274 3 gusting 6 11.1
2014-Oct-26 00:27 257 0 gusting 11 11.1
2014-Oct-26 00:22 268 4 gusting 6 11.1
2014-Oct-26 00:17 262 1 gusting 5 11.1
2014-Oct-26 00:12 271 3 gusting 9 11.1
2014-Oct-26 00:07 266 6 gusting 6 11.1
2014-Oct-26 00:02 257 4 gusting 6 11.1
2014-Oct-25 23:57 263 5 gusting 8 11.1
2014-Oct-25 23:52 275 4 gusting 7 11.1
2014-Oct-25 23:47 269 11.1
2014-Oct-25 23:42 253 1 gusting 6 11.1
2014-Oct-25 23:37 250 2 gusting 8 11.1
2014-Oct-25 23:32 265 5 gusting 6 11.1
2014-Oct-25 23:27 277 6 gusting 5 11.7
2014-Oct-25 23:22 273 4 gusting 5 11.7
2014-Oct-25 23:17 258 11.7
2014-Oct-25 23:12 256 1 gusting 6 11.7
2014-Oct-25 23:07 269 5 gusting 7 11.7
2014-Oct-25 23:02 217 1 gusting 8 11.7
2014-Oct-25 22:57 285 5 gusting 7 11.7
2014-Oct-25 22:52 296 2 gusting 6 11.7
2014-Oct-25 22:47 294 2 gusting 8 11.7
2014-Oct-25 22:42 304 0 gusting 5 11.7
2014-Oct-25 22:37 261 0 gusting 4 11.7
2014-Oct-25 22:32 292 4 gusting 6 11.7
2014-Oct-25 22:27 286 2 gusting 6 11.7
2014-Oct-25 22:22 301 11.7
2014-Oct-25 22:17 292 2 gusting 6 11.7
2014-Oct-25 22:12 306 1 gusting 7 11.7
2014-Oct-25 22:07 301 6 gusting 6 11.7
2014-Oct-25 22:02 304 11.7
2014-Oct-25 21:57 257 0 gusting 5 11.7
2014-Oct-25 21:52 244 0 gusting 6 11.7
2014-Oct-25 21:47 256 0 gusting 7 11.7
2014-Oct-25 21:42 242 0 gusting 5 11.7
2014-Oct-25 21:37 261 0 gusting 6 11.7
2014-Oct-25 21:32 288 3 gusting 5 11.7
2014-Oct-25 21:27 281 11.7
2014-Oct-25 21:22 263 0 gusting 6 11.1
2014-Oct-25 21:17 257 11.1
2014-Oct-25 21:12 268 11.1
2014-Oct-25 21:07 251 11.1
2014-Oct-25 21:02 243 11.1
2014-Oct-25 20:57 280 2 gusting 6 11.1
2014-Oct-25 20:52 234 11.1
2014-Oct-25 20:47 211 1 gusting 7 11.1
2014-Oct-25 20:42 267 11.1
2014-Oct-25 20:37 259 1 gusting 6 11.1
2014-Oct-25 20:32 310 0 gusting 6 11.1
2014-Oct-25 20:27 267 1 gusting 6 11.1
2014-Oct-25 20:22 350 11.1
2014-Oct-25 20:17 310 11.1
2014-Oct-25 20:12 271 0 gusting 6 11.1
2014-Oct-25 20:07 302 11.7
2014-Oct-25 20:02 259 4 gusting 6 11.7
2014-Oct-25 19:57 272 3 gusting 5 11.7
2014-Oct-25 19:52 264 0 gusting 6 11.7
2014-Oct-25 19:47 274 11.7
2014-Oct-25 19:42 260 3 gusting 6 11.7
2014-Oct-25 19:37 294 1 gusting 7 11.7
2014-Oct-25 19:32 285 2 gusting 6 11.7
2014-Oct-25 19:27 273 3 gusting 6 11.7
2014-Oct-25 19:22 319 4 gusting 6 11.7
2014-Oct-25 19:17 260 1 gusting 7 11.7
2014-Oct-25 19:12 266 3 gusting 5 11.7
2014-Oct-25 19:07 300 11.7
2014-Oct-25 19:02 313 0 gusting 6 11.7
2014-Oct-25 18:57 305 1 gusting 7 11.7
2014-Oct-25 18:52 267 0 gusting 9 12.2
2014-Oct-25 18:47 301 12.2
2014-Oct-25 18:42 252 12.2
2014-Oct-25 18:37 265 5 gusting 6 12.2
2014-Oct-25 18:32 284 1 gusting 6 12.2
2014-Oct-25 18:27 302 0 gusting 6 12.2
2014-Oct-25 18:22 246 12.2
2014-Oct-25 18:17 281 4 gusting 6 12.2
2014-Oct-25 18:12 295 5 gusting 6 12.2
2014-Oct-25 18:07 279 3 gusting 6 12.2
2014-Oct-25 18:02 173 12.8
2014-Oct-25 17:57 275 1 gusting 6 12.8
2014-Oct-25 17:52 273 1 gusting 6 12.8
2014-Oct-25 17:47 300 0 gusting 6 12.8
2014-Oct-25 17:42 304 2 gusting 5 12.8
2014-Oct-25 17:37 290 2 gusting 7 12.8
2014-Oct-25 17:32 290 1 gusting 6 12.8
2014-Oct-25 17:27 270 1 gusting 6 13.3
2014-Oct-25 17:22 263 13.3
2014-Oct-25 17:17 304 1 gusting 9 13.3
2014-Oct-25 17:12 284 2 gusting 7 13.3
2014-Oct-25 17:07 286 4 gusting 8 13.3
2014-Oct-25 17:02 271 6 gusting 12 13.3
2014-Oct-25 16:57 269 7 gusting 7 13.3
2014-Oct-25 16:52 116 13.3
2014-Oct-25 16:47 168 13.3
2014-Oct-25 16:42 244 1 gusting 9 13.3
2014-Oct-25 16:37 076 0 gusting 10 13.3
2014-Oct-25 16:32 025 5 gusting 8 13.3
2014-Oct-25 16:27 327 7 gusting 8 13.3
2014-Oct-25 16:22 067 13.9
2014-Oct-25 16:17 050 13.3
2014-Oct-25 16:12 032 4 gusting 10 13.9
2014-Oct-25 16:07 005 8 gusting 12 13.3
2014-Oct-25 16:02 345 6 gusting 11 13.3
2014-Oct-25 15:57 351 9 gusting 11 13.9
2014-Oct-25 15:52 325 6 gusting 10 13.9
2014-Oct-25 15:47 338 3 gusting 6 13.9
2014-Oct-25 15:42 012 4 gusting 11 13.9
2014-Oct-25 15:37 332 2 gusting 11 13.9
2014-Oct-25 15:32 311 7 gusting 12 13.9
2014-Oct-25 15:27 005 3 gusting 13 13.9
2014-Oct-25 15:22 014 10 gusting 11 13.9
2014-Oct-25 15:17 010 9 gusting 10 13.9
2014-Oct-25 15:12 013 6 gusting 9 13.9
2014-Oct-25 15:07 011 1 gusting 8 13.9
2014-Oct-25 15:02 017 2 gusting 10 14.4
2014-Oct-25 14:57 342 2 gusting 8 14.4
2014-Oct-25 14:52 034 3 gusting 10 14.4
2014-Oct-25 14:47 012 6 gusting 11 14.4
2014-Oct-25 14:42 344 4 gusting 12 14.4
2014-Oct-25 14:37 039 3 gusting 6 14.4
2014-Oct-25 14:32 020 1 gusting 8 14.4
2014-Oct-25 14:27 011 4 gusting 7 14.4
2014-Oct-25 14:22 005 0 gusting 7 14.4
2014-Oct-25 14:17 011 3 gusting 10 14.4
2014-Oct-25 14:12 334 14.4
2014-Oct-25 14:07 355 0 gusting 6 14.4
2014-Oct-25 14:02 027 5 gusting 11 15.0
2014-Oct-25 13:57 309 0 gusting 6 15.0
2014-Oct-25 13:52 294 4 gusting 9 15.0
2014-Oct-25 13:47 292 3 gusting 10 15.0
2014-Oct-25 13:42 315 5 gusting 8 14.4
2014-Oct-25 13:37 317 4 gusting 11 14.4
2014-Oct-25 13:32 292 4 gusting 7 14.4
2014-Oct-25 13:27 316 5 gusting 9 14.4
2014-Oct-25 13:22 319 3 gusting 15 14.4
2014-Oct-25 13:17 303 4 gusting 12 14.4
2014-Oct-25 13:12 284 6 gusting 12 14.4
2014-Oct-25 13:07 302 3 gusting 8 14.4
2014-Oct-25 13:02 022 14.4
2014-Oct-25 12:57 321 7 gusting 13 14.4
2014-Oct-25 12:52 327 4 gusting 9 14.4
2014-Oct-25 12:47 288 6 gusting 7 14.4
2014-Oct-25 12:42 338 2 gusting 13 14.4
2014-Oct-25 12:37 293 0 gusting 8 14.4
2014-Oct-25 12:32 321 5 gusting 13 14.4
2014-Oct-25 12:27 319 4 gusting 9 14.4
2014-Oct-25 12:22 298 8 gusting 13 14.4
2014-Oct-25 12:17 342 3 gusting 8 15.0
2014-Oct-25 12:12 342 0 gusting 14 15.0
2014-Oct-25 12:07 307 6 gusting 8 15.0
2014-Oct-25 12:02 274 6 gusting 13 15.6
2014-Oct-25 11:57 342 7 gusting 13 15.6
2014-Oct-25 11:52 292 10 gusting 15 15.0
2014-Oct-25 11:47 286 6 gusting 12 15.0
2014-Oct-25 11:42 322 11 gusting 12 15.0
2014-Oct-25 11:37 276 6 gusting 14 15.0
2014-Oct-25 11:32 277 6 gusting 13 15.0
2014-Oct-25 11:27 301 7 gusting 13 15.0
2014-Oct-25 11:22 335 6 gusting 13 15.0
2014-Oct-25 11:17 311 3 gusting 6 15.6
2014-Oct-25 11:12 329 0 gusting 10 15.6
2014-Oct-25 11:07 271 5 gusting 11 15.6
2014-Oct-25 11:02 292 3 gusting 13 15.0
2014-Oct-25 10:57 288 9 gusting 13 15.0
2014-Oct-25 10:52 296 8 gusting 14 15.0
2014-Oct-25 10:47 312 3 gusting 11 15.0
2014-Oct-25 10:42 259 7 gusting 11 15.0
2014-Oct-25 10:37 321 6 gusting 11 14.4
2014-Oct-25 10:32 247 5 gusting 12 14.4
2014-Oct-25 10:27 286 6 gusting 13 14.4
2014-Oct-25 10:22 271 7 gusting 12 14.4
2014-Oct-25 10:17 306 6 gusting 12 14.4
2014-Oct-25 10:12 336 4 gusting 9 14.4
2014-Oct-25 10:07 321 6 gusting 13 14.4
2014-Oct-25 10:02 296 1 gusting 9 13.9
2014-Oct-25 09:57 321 4 gusting 8 13.9
2014-Oct-25 09:52 299 5 gusting 11 13.9
2014-Oct-25 09:42 311 6 gusting 14 13.9
2014-Oct-25 09:37 289 9 gusting 9 13.9
2014-Oct-25 09:32 323 5 gusting 13 13.9
2014-Oct-25 09:27 350 13.9
2014-Oct-25 09:22 275 6 gusting 13 13.9
2014-Oct-25 09:17 318 2 gusting 9 13.9
2014-Oct-25 09:12 317 7 gusting 9 13.9
2014-Oct-25 09:07 322 5 gusting 12 13.9
2014-Oct-25 09:02 302 5 gusting 13 13.9
2014-Oct-25 08:57 299 10 gusting 13 13.9
2014-Oct-25 08:52 314 4 gusting 12 13.9
2014-Oct-25 08:47 298 1 gusting 13 13.9
2014-Oct-25 08:42 317 6 gusting 13 13.3
2014-Oct-25 08:37 294 12 gusting 12 13.3
2014-Oct-25 08:32 299 8 gusting 9 12.8
2014-Oct-25 08:27 290 2 gusting 11 12.8
2014-Oct-25 08:22 306 4 gusting 11 12.8
2014-Oct-25 08:17 247 4 gusting 13 12.8
2014-Oct-25 08:12 324 0 gusting 8 12.2
2014-Oct-25 08:07 282 3 gusting 10 12.2
2014-Oct-25 08:02 309 6 gusting 9 12.2
2014-Oct-25 07:57 291 7 gusting 11 12.2
2014-Oct-25 07:52 279 2 gusting 7 12.8
2014-Oct-25 07:47 294 1 gusting 10 12.8
2014-Oct-25 07:42 275 4 gusting 13 12.2
2014-Oct-25 07:37 271 4 gusting 8 12.2
2014-Oct-25 07:32 279 9 gusting 9 12.2
2014-Oct-25 07:27 260 12.2
2014-Oct-25 07:22 264 5 gusting 9 12.2
2014-Oct-25 07:17 291 4 gusting 9 11.7
2014-Oct-25 07:12 236 11.7
2014-Oct-25 07:07 309 9 gusting 12 11.7
2014-Oct-25 07:02 213 11.7
2014-Oct-25 06:57 259 6 gusting 7 11.7
2014-Oct-25 06:52 320 2 gusting 6 11.7
2014-Oct-25 06:47 288 5 gusting 6 11.7
2014-Oct-25 06:42 306 11.7
2014-Oct-25 06:37 265 5 gusting 11 11.7
2014-Oct-25 06:32 261 11.7
2014-Oct-25 06:27 271 3 gusting 8 11.7
2014-Oct-25 06:22 307 6 gusting 8 11.7
2014-Oct-25 06:17 258 11.1
2014-Oct-25 06:12 250 0 gusting 4 11.1
2014-Oct-25 06:07 273 11.1
2014-Oct-25 06:02 278 2 gusting 6 11.1
2014-Oct-25 05:57 296 1 gusting 7 11.1
2014-Oct-25 05:52 255 11.1
2014-Oct-25 05:47 235 2 gusting 6 11.1
2014-Oct-25 05:42 284 2 gusting 8 11.1
2014-Oct-25 05:37 250 0 gusting 6 11.1
2014-Oct-25 05:32 346 11.1
2014-Oct-25 05:27 294 1 gusting 8 11.1
2014-Oct-25 05:22 278 11.7
2014-Oct-25 05:17 274 2 gusting 10 11.7
2014-Oct-25 05:12 246 7 gusting 6 11.7
2014-Oct-25 05:07 244 11.7
2014-Oct-25 05:02 271 0 gusting 9 11.7
2014-Oct-25 04:57 271 6 gusting 9 11.7
2014-Oct-25 04:52 298 5 gusting 10 11.7
2014-Oct-25 04:47 296 2 gusting 8 11.7
2014-Oct-25 04:42 252 0 gusting 11 11.7
2014-Oct-25 04:37 284 6 gusting 12 11.7
2014-Oct-25 04:32 304 4 gusting 13 11.7
2014-Oct-25 04:27 284 6 gusting 10 11.1
2014-Oct-25 04:22 296 7 gusting 12 11.1
2014-Oct-25 04:17 267 3 gusting 9 11.1
2014-Oct-25 04:12 290 4 gusting 11 11.1
2014-Oct-25 04:07 261 6 gusting 9 11.1
2014-Oct-25 04:02 333 6 gusting 9 11.1
2014-Oct-25 03:57 300 7 gusting 10 11.1
2014-Oct-25 03:52 301 4 gusting 11 11.1
2014-Oct-25 03:47 274 12 gusting 14 11.1
2014-Oct-25 03:42 286 6 gusting 13 11.1
2014-Oct-25 03:37 301 7 gusting 10 11.7
2014-Oct-25 03:32 296 4 gusting 13 11.7
2014-Oct-25 03:27 290 9 gusting 19 11.7
2014-Oct-25 03:22 309 10 gusting 19 11.7
2014-Oct-25 03:17 274 10 gusting 18 11.7
2014-Oct-25 03:12 323 4 gusting 14 11.7
2014-Oct-25 03:07 338 9 gusting 15 11.7
2014-Oct-25 03:02 289 10 gusting 14 11.7
2014-Oct-25 02:57 305 2 gusting 10 11.7
2014-Oct-25 02:52 282 6 gusting 14 11.7
2014-Oct-25 02:47 294 7 gusting 16 11.7
2014-Oct-25 02:42 290 6 gusting 17 11.7
2014-Oct-25 02:37 311 4 gusting 16 11.7
2014-Oct-25 02:32 302 4 gusting 12 11.7
2014-Oct-25 02:27 277 6 gusting 14 11.7
2014-Oct-25 02:22 277 6 gusting 11 11.7
2014-Oct-25 02:17 299 6 gusting 9 11.7
2014-Oct-25 02:12 344 3 gusting 14 11.7
2014-Oct-25 02:07 296 9 gusting 12 11.7
2014-Oct-25 02:02 265 3 gusting 15 11.7
2014-Oct-25 01:57 263 2 gusting 12 11.7
2014-Oct-25 01:52 277 7 gusting 10 11.7
2014-Oct-25 01:47 301 7 gusting 11 11.7
2014-Oct-25 01:42 311 5 gusting 13 11.7
2014-Oct-25 01:37 269 5 gusting 13 11.7
2014-Oct-25 01:32 307 7 gusting 12 11.7
2014-Oct-25 01:27 305 4 gusting 13 11.7
2014-Oct-25 01:22 263 4 gusting 13 11.7
2014-Oct-25 01:17 261 5 gusting 13 11.7
2014-Oct-25 01:12 238 4 gusting 13 11.7
2014-Oct-25 01:07 271 6 gusting 12 11.7
2014-Oct-25 01:02 228 3 gusting 9 11.1
2014-Oct-25 00:57 251 3 gusting 11 11.7
2014-Oct-25 00:52 259 11.7
2014-Oct-25 00:47 199 3 gusting 12 11.7
2014-Oct-25 00:42 251 4 gusting 10 11.7
2014-Oct-25 00:37 180 1 gusting 11 11.7
2014-Oct-25 00:32 225 0 gusting 8 11.7
2014-Oct-25 00:27 307 3 gusting 9 11.7
2014-Oct-25 00:22 250 3 gusting 13 11.7
2014-Oct-25 00:17 257 2 gusting 13 11.7
2014-Oct-25 00:12 268 6 gusting 15 11.7
2014-Oct-25 00:07 301 10 gusting 16 11.7
2014-Oct-25 00:02 244 3 gusting 14 11.7
2014-Oct-24 23:57 277 10 gusting 16 11.7
2014-Oct-24 23:52 282 6 gusting 13 11.7
2014-Oct-24 23:47 288 8 gusting 13 11.7
2014-Oct-24 23:42 300 12 gusting 15 11.7
2014-Oct-24 23:37 300 2 gusting 16 11.7
2014-Oct-24 23:32 292 15 gusting 18 11.7
2014-Oct-24 23:27 337 6 gusting 16 12.2
2014-Oct-24 23:22 296 13 gusting 14 12.2
2014-Oct-24 23:17 265 8 gusting 12 12.2
2014-Oct-24 23:12 305 8 gusting 15 12.2
2014-Oct-24 23:07 296 10 gusting 13 12.2
2014-Oct-24 23:02 269 3 gusting 14 12.2
2014-Oct-24 22:57 302 10 gusting 13 12.2
2014-Oct-24 22:52 278 4 gusting 12 12.2
2014-Oct-24 22:47 304 5 gusting 10 12.2
2014-Oct-24 22:42 273 2 gusting 13 12.2
2014-Oct-24 22:37 300 5 gusting 14 12.2
2014-Oct-24 22:32 227 0 gusting 11 12.2
2014-Oct-24 22:27 303 6 gusting 13 12.2
2014-Oct-24 22:22 166 2 gusting 10 12.2
2014-Oct-24 22:17 286 5 gusting 13 12.2
2014-Oct-24 22:12 286 4 gusting 11 12.2
2014-Oct-24 22:07 300 3 gusting 12 12.2
2014-Oct-24 22:02 261 6 gusting 13 12.2
2014-Oct-24 21:57 244 0 gusting 9 12.2
2014-Oct-24 21:52 344 3 gusting 13 12.2
2014-Oct-24 21:47 234 12.2
2014-Oct-24 21:42 200 2 gusting 15 12.2
2014-Oct-24 21:37 294 3 gusting 13 12.2
2014-Oct-24 21:32 150 12.2
2014-Oct-24 21:27 259 12.2
2014-Oct-24 21:22 315 3 gusting 13 12.2
2014-Oct-24 21:17 280 4 gusting 13 12.2
2014-Oct-24 21:12 286 4 gusting 11 12.2
2014-Oct-24 21:07 267 5 gusting 14 12.2
2014-Oct-24 21:02 250 4 gusting 11 12.2
2014-Oct-24 20:57 287 3 gusting 11 12.2
2014-Oct-24 20:52 304 5 gusting 9 12.2
2014-Oct-24 20:47 278 2 gusting 11 12.2
2014-Oct-24 20:42 276 6 gusting 8 12.2
2014-Oct-24 20:37 317 3 gusting 12 12.2
2014-Oct-24 20:32 266 5 gusting 8 12.2
2014-Oct-24 20:27 296 3 gusting 8 12.2
2014-Oct-24 20:22 273 1 gusting 6 12.2
2014-Oct-24 20:17 274 12.2
2014-Oct-24 20:12 308 6 gusting 13 12.2
2014-Oct-24 20:07 298 3 gusting 11 12.2
2014-Oct-24 20:02 256 3 gusting 9 12.2
2014-Oct-24 19:57 295 5 gusting 10 12.2
2014-Oct-24 19:52 279 6 gusting 10 12.2
2014-Oct-24 19:47 281 4 gusting 7 12.2
2014-Oct-24 19:42 314 6 gusting 8 12.2
2014-Oct-24 19:37 340 2 gusting 10 12.2
2014-Oct-24 19:32 280 2 gusting 11 12.2
2014-Oct-24 19:27 292 5 gusting 13 12.2
2014-Oct-24 19:22 285 2 gusting 10 12.2
2014-Oct-24 19:17 298 5 gusting 13 12.2
2014-Oct-24 19:12 262 8 gusting 13 12.2
2014-Oct-24 19:07 221 1 gusting 12 12.2
2014-Oct-24 19:02 255 6 gusting 12 12.2
2014-Oct-24 18:57 286 5 gusting 12 12.2
2014-Oct-24 18:52 290 4 gusting 12 12.2
2014-Oct-24 18:47 306 9 gusting 11 12.2
2014-Oct-24 18:42 265 5 gusting 14 12.2
2014-Oct-24 18:37 290 9 gusting 14 12.2
2014-Oct-24 18:32 271 8 gusting 13 12.2
2014-Oct-24 18:27 333 0 gusting 12 12.2
2014-Oct-24 18:22 264 8 gusting 11 12.2
2014-Oct-24 18:17 309 6 gusting 13 12.2
2014-Oct-24 18:12 276 6 gusting 14 12.2
2014-Oct-24 18:07 257 5 gusting 13 12.2
2014-Oct-24 18:02 298 6 gusting 11 12.2
2014-Oct-24 17:57 296 6 gusting 11 12.2
2014-Oct-24 17:52 237 7 gusting 13 12.2
2014-Oct-24 17:47 262 5 gusting 13 12.2
2014-Oct-24 17:42 306 12 gusting 13 12.2
2014-Oct-24 17:37 323 5 gusting 15 12.2
2014-Oct-24 17:32 285 6 gusting 12 12.2
2014-Oct-24 17:27 285 6 gusting 12 12.2
2014-Oct-24 17:22 272 7 gusting 13 12.8
2014-Oct-24 17:17 295 2 gusting 12 12.8
2014-Oct-24 17:12 289 6 gusting 12 12.8
2014-Oct-24 17:07 242 5 gusting 18 12.8
2014-Oct-24 17:02 317 10 gusting 14 12.8
2014-Oct-24 16:57 297 5 gusting 14 12.8
2014-Oct-24 16:52 295 13 gusting 18 12.8
2014-Oct-24 16:47 315 13 gusting 20 12.8
2014-Oct-24 16:42 311 8 gusting 14 12.8
2014-Oct-24 16:37 311 6 gusting 15 12.8
2014-Oct-24 16:32 314 6 gusting 19 12.8
2014-Oct-24 16:27 289 13 gusting 20 12.8
2014-Oct-24 16:22 321 19 gusting 23 12.8
2014-Oct-24 16:17 302 16 gusting 20 12.8
2014-Oct-24 16:12 294 13 gusting 17 12.8
2014-Oct-24 16:07 284 6 gusting 17 12.8
2014-Oct-24 16:02 259 11 gusting 16 12.8
2014-Oct-24 15:57 300 16 gusting 17 12.8
2014-Oct-24 15:52 274 9 gusting 15 12.8
2014-Oct-24 15:47 270 6 gusting 13 12.8
2014-Oct-24 15:42 261 7 gusting 14 12.8
2014-Oct-24 15:37 259 6 gusting 15 12.8
2014-Oct-24 15:32 286 11 gusting 13 12.8
2014-Oct-24 15:27 323 5 gusting 15 12.8
2014-Oct-24 15:22 244 6 gusting 16 12.8
2014-Oct-24 15:17 287 7 gusting 15 12.8
2014-Oct-24 15:12 257 6 gusting 12 12.8
2014-Oct-24 15:02 323 3 gusting 17 12.8
2014-Oct-24 14:57 272 10 gusting 18 13.3
2014-Oct-24 14:52 292 13 gusting 19 13.3
2014-Oct-24 14:47 318 13 gusting 21 13.3
2014-Oct-24 14:17 304 13 gusting 21 13.3
2014-Oct-24 14:12 259 8 gusting 21 13.3
2014-Oct-24 14:07 288 6 gusting 21 13.3
2014-Oct-24 14:02 281 14 gusting 23 13.9
2014-Oct-24 13:57 300 13 gusting 19 13.9
2014-Oct-24 13:52 292 16 gusting 21 13.9
2014-Oct-24 13:47 284 6 gusting 15 13.9
2014-Oct-24 13:42 309 13.9
2014-Oct-24 13:37 334 4 gusting 19 13.9
2014-Oct-24 13:32 227 13.9
2014-Oct-24 13:27 286 7 gusting 15 13.9
2014-Oct-24 13:22 296 13 gusting 13 13.9
2014-Oct-24 13:17 292 6 gusting 13 13.3
2014-Oct-24 13:12 293 3 gusting 12 12.8
2014-Oct-24 13:07 281 8 gusting 12 12.8
2014-Oct-24 13:02 284 6 gusting 12 12.8
2014-Oct-24 12:57 268 5 gusting 13 12.8
2014-Oct-24 12:52 313 6 gusting 12 12.8
2014-Oct-24 12:47 302 11 gusting 13 12.8
2014-Oct-24 12:42 281 4 gusting 17 12.8
2014-Oct-24 12:37 307 10 gusting 15 12.8
2014-Oct-24 12:32 336 6 gusting 16 13.3
2014-Oct-24 12:27 342 9 gusting 13 13.3
2014-Oct-24 12:22 038 3 gusting 12 13.3
2014-Oct-24 12:17 297 4 gusting 13 13.3
2014-Oct-24 12:12 348 6 gusting 12 12.8
2014-Oct-24 12:07 262 9 gusting 11 12.2
2014-Oct-24 12:02 271 1 gusting 8 12.2
2014-Oct-24 11:57 254 4 gusting 10 12.2
2014-Oct-24 11:52 306 12.2
2014-Oct-24 11:47 299 4 gusting 10 12.2
2014-Oct-24 11:42 269 5 gusting 13 12.2
2014-Oct-24 11:37 288 5 gusting 13 11.7
2014-Oct-24 11:32 288 1 gusting 8 11.7
2014-Oct-24 11:27 313 3 gusting 11 11.7
2014-Oct-24 11:22 326 5 gusting 12 11.7
2014-Oct-24 11:17 296 7 gusting 13 11.7
2014-Oct-24 11:12 269 8 gusting 13 11.7
2014-Oct-24 11:07 245 6 gusting 13 11.7
2014-Oct-24 11:02 304 12 gusting 13 11.7
2014-Oct-24 10:57 285 9 gusting 13 11.7
2014-Oct-24 10:52 292 0 gusting 12 11.7
2014-Oct-24 10:47 288 2 gusting 10 11.7
2014-Oct-24 10:42 288 10 gusting 13 11.7
2014-Oct-24 10:37 279 8 gusting 13 11.7
2014-Oct-24 10:32 280 7 gusting 13 11.7
2014-Oct-24 10:27 260 6 gusting 13 11.7
2014-Oct-24 10:22 267 6 gusting 11 11.7
2014-Oct-24 10:17 347 3 gusting 12 11.7
2014-Oct-24 10:12 272 8 gusting 13 11.7
2014-Oct-24 10:07 313 5 gusting 10 11.7
2014-Oct-24 10:02 306 2 gusting 9 11.7
2014-Oct-24 09:57 299 5 gusting 8 11.7
2014-Oct-24 09:52 317 1 gusting 11 11.7
2014-Oct-24 09:47 300 8 gusting 8 11.7
2014-Oct-24 09:42 286 5 gusting 12 11.7
2014-Oct-24 09:37 246 6 gusting 8 11.7
2014-Oct-24 09:32 260 11.7
2014-Oct-24 09:27 296 4 gusting 6 11.7
2014-Oct-24 09:22 215 3 gusting 5 11.7
2014-Oct-24 09:17 271 11.7
2014-Oct-24 09:12 345 0 gusting 4 11.7
2014-Oct-24 09:07 009 11.7
2014-Oct-24 09:02 052 6 gusting 15 11.7
2014-Oct-24 08:57 042 6 gusting 13 11.7
2014-Oct-24 08:52 005 9 gusting 13 11.7
2014-Oct-24 08:47 046 12 gusting 18 12.2
2014-Oct-24 08:42 077 8 gusting 16 12.8
2014-Oct-24 08:37 355 5 gusting 11 12.8
2014-Oct-24 08:32 030 3 gusting 10 12.8
2014-Oct-24 08:27 032 0 gusting 11 12.8
2014-Oct-24 08:22 051 6 gusting 12 12.2
2014-Oct-24 08:17 030 5 gusting 9 12.2
2014-Oct-24 08:12 023 8 gusting 13 12.2
2014-Oct-24 08:07 013 6 gusting 10 12.2
2014-Oct-24 08:02 032 6 gusting 14 12.2